Check out our new BloomSky Weather System.

Active alerts

Galveston, TX
  Details for Galveston, TX Coastal Flood Advisory  +2 additional alerts
Houston, TX
  Details for Houston, TX Flash Flood Watch
Fort Bend, TX
  Details for Fort Bend, TX Flash Flood Watch


Thunder radar  blitzortung!


Rain radar more information rain snow radar


Visit our other weather sites:

Template documentation
and downloads

And another site



Weather Underground History page Text

Daily Summary for January 4, 2018 Units:  Metric    English   Both
« Previous Day
Next Day »
Daily Weekly Monthly Yearly Custom
  High: Low: Average:
Temperature: -17.8 °C -4.2 °C 3.8 °C
Dew Point: -17.8 °C -5.3 °C -3.2 °C
Humidity: Humidity % 32 % 65 %
Wind Speed: 0 km/h 0 km/h 0.8 km/h
Wind Gust: 0 km/h - -
Wind:- - SSW
Pressure: 0 hPa 1026 hPa -
Precipitation: 0 mm    
Historical Graphs
 
 
Tabular Data for January 4, 2018
Time Temperature Dew Point Pressure Wind Wind Speed Wind Gust Humidity Rainfall Rate (Hourly)
-17.8 °C -17.8 °C 0 hPa Calm     Humidity % 0 mm
00:00 -2.1 °C -4 °C 1028 hPa Calm     87 % 0 mm
00:03 -2.2 °C -4.1 °C 1028 hPa Calm     87 % 0 mm
00:04 -2.2 °C -4.1 °C 1028 hPa Calm     87 % 0 mm
00:09 -2.4 °C -4.3 °C 1028 hPa Calm     87 % 0 mm
00:10 -2.4 °C -4.1 °C 1028 hPa Calm     88 % 0 mm
00:15 -2.4 °C -4 °C 1027.7 hPa Calm     89 % 0 mm
00:20 -2.4 °C -4 °C 1027.7 hPa Calm     89 % 0 mm
00:25 -2.6 °C -4.3 °C 1027.7 hPa Calm     88 % 0 mm
00:26 -2.6 °C -4.3 °C 1027.7 hPa Calm     88 % 0 mm
00:27 -2.6 °C -4.3 °C 1027.7 hPa Calm     88 % 0 mm
00:30 -2.7 °C -4.3 °C 1027.7 hPa Calm     89 % 0 mm
00:32 -2.7 °C -4.3 °C 1027.7 hPa Calm     89 % 0 mm
00:33 -2.7 °C -4.3 °C 1027.7 hPa Calm     89 % 0 mm
00:37 -2.7 °C -4.3 °C 1027.7 hPa Calm     89 % 0 mm
00:38 -2.7 °C -4.3 °C 1027.7 hPa Calm     89 % 0 mm
00:43 -2.4 °C -3.8 °C 1027.7 hPa Calm     90 % 0 mm
00:44 -2.4 °C -3.8 °C 1027.7 hPa Calm     90 % 0 mm
00:47 -2.5 °C -4.1 °C 1027.7 hPa Calm     89 % 0 mm
00:49 -2.6 °C -4.2 °C 1027.7 hPa Calm     89 % 0 mm
00:51 -2.6 °C -4.2 °C 1027.7 hPa Calm     89 % 0 mm
00:53 -2.6 °C -4.2 °C 1027.7 hPa Calm     89 % 0 mm
00:56 -2.7 °C -4.3 °C 1027.7 hPa Calm     89 % 0 mm
01:01 -2.9 °C -4.5 °C 1027.7 hPa Calm     89 % 0 mm
01:06 -2.9 °C -4.3 °C 1027.7 hPa Calm     90 % 0 mm
01:10 -2.9 °C -4.3 °C 1027.7 hPa Calm     90 % 0 mm
01:13 -2.9 °C -4.3 °C 1027.7 hPa Calm     90 % 0 mm
01:15 -2.9 °C -4.3 °C 1027.7 hPa Calm     90 % 0 mm
01:17 -2.9 °C -4.3 °C 1027.7 hPa Calm     90 % 0 mm
01:20 -3 °C -4.4 °C 1027.7 hPa Calm     90 % 0 mm
01:21 -3 °C -4.4 °C 1027.7 hPa Calm     90 % 0 mm
01:26 -3 °C -4.4 °C 1027.7 hPa Calm     90 % 0 mm
01:27 -3 °C -4.4 °C 1027.7 hPa Calm     90 % 0 mm
01:32 -3 °C -4.4 °C 1027.7 hPa Calm     90 % 0 mm
01:35 -3.1 °C -4.5 °C 1027.7 hPa Calm     90 % 0 mm
01:40 -3.1 °C -4.5 °C 1027.7 hPa Calm     90 % 0 mm
01:42 -3.2 °C -4.6 °C 1027.7 hPa Calm     90 % 0 mm
01:46 -3.3 °C -4.7 °C 1027.7 hPa Calm     90 % 0 mm
01:51 -3.4 °C -4.8 °C 1027.7 hPa Calm     90 % 0 mm
01:56 -3.4 °C -4.7 °C 1027.7 hPa Calm     91 % 0 mm
02:02 -3.3 °C -4.6 °C 1027.7 hPa Calm     91 % 0 mm
02:03 -3.3 °C -4.6 °C 1027.7 hPa Calm     91 % 0 mm
02:05 -3.2 °C -4.5 °C 1027.7 hPa Calm     91 % 0 mm
02:07 -3.1 °C -4.4 °C 1027.7 hPa Calm     91 % 0 mm
02:13 -3 °C -4.1 °C 1027.7 hPa Calm     92 % 0 mm
02:14 -2.9 °C -4 °C 1027.7 hPa Calm     92 % 0 mm
02:15 -2.9 °C -4 °C 1027.7 hPa Calm     92 % 0 mm
02:20 -2.8 °C -3.9 °C 1027.7 hPa Calm     92 % 0 mm
02:25 -2.8 °C -3.9 °C 1027.7 hPa Calm     92 % 0 mm
02:28 -2.8 °C -3.9 °C 1027.7 hPa Calm     92 % 0 mm
02:29 -2.8 °C -3.9 °C 1027.7 hPa Calm     92 % 0 mm
02:34 -2.8 °C -4.1 °C 1027.7 hPa Calm     91 % 0 mm
02:39 -3 °C -4.3 °C 1027.7 hPa Calm     91 % 0 mm
02:44 -3.1 °C -4.4 °C 1027.7 hPa Calm     91 % 0 mm
02:48 -3 °C -4.1 °C 1027.7 hPa Calm     92 % 0 mm
02:53 -2.9 °C -4 °C 1027.7 hPa Calm     92 % 0 mm
02:54 -2.9 °C -4 °C 1027.7 hPa Calm     92 % 0 mm
02:59 -2.9 °C -4 °C 1027.7 hPa Calm     92 % 0 mm
03:01 -3 °C -4.1 °C 1027.7 hPa Calm     92 % 0 mm
03:03 -3.1 °C -4.4 °C 1027.7 hPa Calm     91 % 0 mm
03:08 -3.2 °C -4.5 °C 1027.7 hPa Calm     91 % 0 mm
03:13 -3.2 °C -4.3 °C 1027.7 hPa Calm     92 % 0 mm
03:18 -3.2 °C -4.3 °C 1027.7 hPa Calm     92 % 0 mm
03:19 -3.2 °C -4.3 °C 1027.7 hPa Calm     92 % 0 mm
03:24 -3.2 °C -4.3 °C 1027.7 hPa Calm     92 % 0 mm
03:25 -3.2 °C -4.3 °C 1027.7 hPa Calm     92 % 0 mm
03:30 -3.2 °C -4.3 °C 1027.7 hPa Calm     92 % 0 mm
03:35 -3.2 °C -4.3 °C 1027.7 hPa Calm     92 % 0 mm
03:36 -3.2 °C -4.3 °C 1027.7 hPa Calm     92 % 0 mm
03:42 -3.2 °C -4.3 °C 1027.7 hPa Calm     92 % 0 mm
03:43 -3.2 °C -4.3 °C 1027.7 hPa Calm     92 % 0 mm
03:48 -3.3 °C -4.4 °C 1027.7 hPa Calm     92 % 0 mm
03:49 -3.3 °C -4.4 °C 1027.7 hPa Calm     92 % 0 mm
03:53 -3.5 °C -4.6 °C 1027.7 hPa Calm     92 % 0 mm
03:56 -3.6 °C -4.7 °C 1027.7 hPa Calm     92 % 0 mm
03:57 -3.6 °C -4.7 °C 1027.7 hPa Calm     92 % 0 mm
04:01 -3.8 °C -4.9 °C 1027.7 hPa Calm     92 % 0 mm
04:05 -3.9 °C -5.2 °C 1027.7 hPa Calm     91 % 0 mm
04:07 -4 °C -5.3 °C 1027.7 hPa Calm     91 % 0 mm
04:12 -3.9 °C -5 °C 1027.7 hPa Calm     92 % 0 mm
04:17 -3.8 °C -4.9 °C 1027.7 hPa Calm     92 % 0 mm
04:18 -3.8 °C -4.9 °C 1027.7 hPa Calm     92 % 0 mm
04:23 -3.9 °C -5 °C 1027.7 hPa Calm     92 % 0 mm
04:24 -3.9 °C -5 °C 1027.7 hPa Calm     92 % 0 mm
04:25 -3.9 °C -5 °C 1027.7 hPa Calm     92 % 0 mm
04:30 -4 °C -5.1 °C 1027.7 hPa Calm     92 % 0 mm
04:32 -3.9 °C -5 °C 1027.7 hPa Calm     92 % 0 mm
04:37 -3.7 °C -4.7 °C 1027.7 hPa Calm     93 % 0 mm
04:39 -3.6 °C -4.6 °C 1027.7 hPa Calm     93 % 0 mm
04:42 -3.5 °C -4.5 °C 1027.7 hPa Calm     93 % 0 mm
04:44 -3.5 °C -4.5 °C 1027.7 hPa Calm     93 % 0 mm
04:45 -3.5 °C -4.5 °C 1027.7 hPa Calm     93 % 0 mm
04:50 -3.5 °C -4.6 °C 1027.7 hPa Calm     92 % 0 mm
04:52 -3.6 °C -4.7 °C 1027.7 hPa Calm     92 % 0 mm
04:57 -3.6 °C -4.7 °C 1027.7 hPa Calm     92 % 0 mm
05:01 -3.6 °C -4.6 °C 1027.7 hPa Calm     93 % 0 mm
05:06 -3.6 °C -4.6 °C 1027.7 hPa Calm     93 % 0 mm
05:08 -3.6 °C -4.6 °C 1027.7 hPa Calm     93 % 0 mm
05:13 -3.7 °C -4.7 °C 1027.7 hPa Calm     93 % 0 mm
05:18 -3.6 °C -4.6 °C 1027.7 hPa Calm     93 % 0 mm
05:23 -3.5 °C -4.5 °C 1027.7 hPa Calm     93 % 0 mm
05:28 -3.6 °C -4.6 °C 1028 hPa Calm     93 % 0 mm
05:30 -3.6 °C -4.6 °C 1028 hPa Calm     93 % 0 mm
05:33 -3.6 °C -4.6 °C 1028 hPa Calm     93 % 0 mm
05:38 -3.5 °C -4.5 °C 1028 hPa Calm     93 % 0 mm
05:40 -3.5 °C -4.5 °C 1028 hPa Calm     93 % 0 mm
05:45 -3.4 °C -4.4 °C 1028 hPa Calm     93 % 0 mm
05:46 -3.4 °C -4.4 °C 1028.3 hPa Calm     93 % 0 mm
05:51 -3.5 °C -4.5 °C 1028.3 hPa Calm     93 % 0 mm
05:52 -3.5 °C -4.5 °C 1028.3 hPa Calm     93 % 0 mm
05:58 -3.7 °C -4.7 °C 1028.3 hPa Calm     93 % 0 mm
06:01 -3.8 °C -4.9 °C 1028.3 hPa Calm     92 % 0 mm
06:06 -3.9 °C -5 °C 1028.3 hPa Calm     92 % 0 mm
06:11 -4.1 °C -5.1 °C 1028.3 hPa Calm     93 % 0 mm
06:12 -4 °C -5 °C 1028.3 hPa Calm     93 % 0 mm
06:17 -4.1 °C -5.1 °C 1028.3 hPa Calm     93 % 0 mm
06:22 -3.8 °C -4.8 °C 1028.7 hPa Calm     93 % 0 mm
06:28 -3.8 °C -4.8 °C 1028.7 hPa Calm     93 % 0 mm
06:33 -3.9 °C -4.9 °C 1028.7 hPa Calm     93 % 0 mm
06:34 -3.9 °C -4.9 °C 1028.7 hPa Calm     93 % 0 mm
06:36 -3.9 °C -4.9 °C 1028.7 hPa Calm     93 % 0 mm
06:38 -4 °C -5 °C 1028.7 hPa Calm     93 % 0 mm
06:40 -4 °C -5 °C 1028.7 hPa Calm     93 % 0 mm
06:43 -4.1 °C -5.1 °C 1028.7 hPa Calm     93 % 0 mm
06:46 -4.2 °C -5.2 °C 1028.7 hPa Calm     93 % 0 mm
06:48 -4.2 °C -5.2 °C 1028.7 hPa Calm     93 % 0 mm
06:51 -4.2 °C -5.2 °C 1029 hPa Calm     93 % 0 mm
06:53 -4.2 °C -5.2 °C 1029 hPa Calm     93 % 0 mm
06:56 -4.1 °C -4.9 °C 1029 hPa Calm     94 % 0 mm
06:58 -4 °C -4.8 °C 1029 hPa Calm     94 % 0 mm
07:03 -3.9 °C -4.7 °C 1029 hPa Calm     94 % 0 mm
07:05 -3.9 °C -4.7 °C 1029 hPa Calm     94 % 0 mm
07:06 -3.9 °C -4.7 °C 1029 hPa Calm     94 % 0 mm
07:11 -3.9 °C -4.7 °C 1029 hPa Calm     94 % 0 mm
07:13 -3.9 °C -4.7 °C 1029 hPa Calm     94 % 0 mm
07:15 -3.9 °C -4.7 °C 1029 hPa Calm     94 % 0 mm
07:20 -3.8 °C -4.6 °C 1029 hPa Calm     94 % 0 mm
07:21 -3.9 °C -4.7 °C 1029.3 hPa Calm     94 % 0 mm
07:26 -3.9 °C -4.7 °C 1029.3 hPa Calm     94 % 0 mm
07:27 -3.9 °C -4.7 °C 1029.3 hPa Calm     94 % 0 mm
07:32 -4 °C -4.8 °C 1029.3 hPa Calm     94 % 0 mm
07:37 -4.1 °C -4.9 °C 1029.3 hPa Calm     94 % 0 mm
07:42 -4.2 °C -5 °C 1029.3 hPa Calm     94 % 0 mm
07:43 -4.2 °C -5 °C 1029.3 hPa Calm     94 % 0 mm
07:48 -4.1 °C -4.9 °C 1029.3 hPa Calm     94 % 0 mm
07:53 -3.4 °C -4.1 °C 1029.3 hPa Calm     95 % 0 mm
07:54 -3.4 °C -4.1 °C 1029.3 hPa Calm     95 % 0 mm
07:55 -3.2 °C -3.9 °C 1029.3 hPa Calm     95 % 0 mm
08:00 -2.5 °C -3.2 °C 1029.3 hPa Calm     95 % 0 mm
08:02 -2.4 °C -3.1 °C 1029.3 hPa Calm     95 % 0 mm
08:07 -1.7 °C -2.4 °C 1029.3 hPa Calm     95 % 0 mm
08:12 -0.8 °C -1.5 °C 1029.3 hPa Calm     95 % 0 mm
08:17 -0.1 °C -0.8 °C 1029.3 hPa Calm     95 % 0 mm
08:20 0.2 °C -0.5 °C 1029.3 hPa Calm     95 % 0 mm
08:24 0.5 °C -0.2 °C 1029.3 hPa Calm     95 % 0 mm
08:25 0.6 °C -0.3 °C 1029.3 hPa Calm   1.6 km/h 94 % 0 mm
08:30 0.7 °C -0.5 °C 1029.3 hPa Calm   1.6 km/h 92 % 0 mm
08:35 1.1 °C -0.4 °C 1029.3 hPa Calm   1.6 km/h 90 % 0 mm
08:36 1.1 °C -0.4 °C 1029.3 hPa NNW 1.6 km/h 1.6 km/h 90 % 0 mm
08:42 1.5 °C -0.7 °C 1029.3 hPa Calm   3.2 km/h 85 % 0 mm
08:44 1.6 °C -0.6 °C 1029.3 hPa NNW 1.6 km/h 3.2 km/h 85 % 0 mm
08:49 2.2 °C -0.9 °C 1029.3 hPa Calm   3.2 km/h 80 % 0 mm
08:51 2.4 °C -0.7 °C 1029.3 hPa Calm   3.2 km/h 80 % 0 mm
08:56 2.8 °C -1.2 °C 1029.7 hPa NW 1.6 km/h 4.8 km/h 75 % 0 mm
08:58 3.1 °C -1.3 °C 1029.7 hPa Calm   4.8 km/h 73 % 0 mm
09:03 3.3 °C -1.5 °C 1029.3 hPa Calm   4.8 km/h 71 % 0 mm
09:04 3.3 °C -1.5 °C 1029.3 hPa Calm   4.8 km/h 71 % 0 mm
09:09 3.8 °C -1.2 °C 1029.3 hPa Calm   4.8 km/h 70 % 0 mm
09:14 4.3 °C -1.7 °C 1029.3 hPa Calm   4.8 km/h 65 % 0 mm
09:15 4.3 °C -1.7 °C 1029.3 hPa NE 3.2 km/h 4.8 km/h 65 % 0 mm
09:20 4.7 °C -2.2 °C 1029.3 hPa NNE 6.4 km/h 6.4 km/h 61 % 0 mm
09:22 4.8 °C -2.3 °C 1029.3 hPa ESE 1.6 km/h 4.8 km/h 60 % 0 mm
09:23 4.8 °C -2.3 °C 1029 hPa Calm   4.8 km/h 60 % 0 mm
09:27 4.9 °C -2.2 °C 1029 hPa Calm   8 km/h 60 % 0 mm
09:28 4.9 °C -2.2 °C 1029 hPa East 3.2 km/h 8 km/h 60 % 0 mm
09:31 4.9 °C -2.9 °C 1029 hPa ESE 4.8 km/h 8 km/h 57 % 0 mm
09:36 5 °C -2.6 °C 1029 hPa NNE 4.8 km/h 11.3 km/h 58 % 0 mm
09:41 5.1 °C -3 °C 1029 hPa ESE 6.4 km/h 11.3 km/h 56 % 0 mm
09:45 5.3 °C -3.3 °C 1029.3 hPa ENE 6.4 km/h 11.3 km/h 54 % 0 mm
09:49 5.2 °C -3.4 °C 1029.3 hPa East 4.8 km/h 11.3 km/h 54 % 0 mm
09:51 5.3 °C -3.5 °C 1029.3 hPa NE 1.6 km/h 11.3 km/h 53 % 0 mm
09:55 5.5 °C -3.3 °C 1029.3 hPa East 4.8 km/h 11.3 km/h 53 % 0 mm
09:57 5.5 °C -3.8 °C 1029.3 hPa North 4.8 km/h 11.3 km/h 51 % 0 mm
09:58 5.5 °C -3.6 °C 1029.3 hPa NE 3.2 km/h 11.3 km/h 52 % 0 mm
10:03 5.5 °C -3.3 °C 1029.3 hPa Calm   11.3 km/h 53 % 0 mm
10:08 5.7 °C -3.4 °C 1029.3 hPa Calm   9.7 km/h 52 % 0 mm
10:10 5.9 °C -3 °C 1029.3 hPa Calm   8 km/h 53 % 0 mm
10:16 6.2 °C -2.9 °C 1029.3 hPa NW 1.6 km/h 8 km/h 52 % 0 mm
10:21 6.5 °C -3.2 °C 1029.3 hPa ENE 6.4 km/h 8 km/h 50 % 0 mm
10:22 6.5 °C -3.2 °C 1029.3 hPa East 3.2 km/h 8 km/h 50 % 0 mm
10:25 6.5 °C -3.5 °C 1029.3 hPa Calm   11.3 km/h 49 % 0 mm
10:28 6.6 °C -3.1 °C 1029.3 hPa Calm   11.3 km/h 50 % 0 mm
10:31 6.8 °C -3.2 °C 1029.3 hPa Calm   11.3 km/h 49 % 0 mm
10:33 6.9 °C -3.4 °C 1029.3 hPa Calm   11.3 km/h 48 % 0 mm
10:38 7.2 °C -2.8 °C 1029.3 hPa NE 1.6 km/h 11.3 km/h 49 % 0 mm
10:39 7.2 °C -3.1 °C 1029.3 hPa NE 1.6 km/h 11.3 km/h 48 % 0 mm
10:42 7.2 °C -3.4 °C 1029.3 hPa NE 6.4 km/h 8 km/h 47 % 0 mm
10:47 7.2 °C -3.4 °C 1029.3 hPa NE 3.2 km/h 8 km/h 47 % 0 mm
10:52 7.4 °C -2.9 °C 1029 hPa ENE 1.6 km/h 8 km/h 48 % 0 mm
10:54 7.5 °C -2.8 °C 1029.3 hPa Calm   8 km/h 48 % 0 mm
10:57 7.4 °C -3.5 °C 1029.3 hPa East 3.2 km/h 8 km/h 46 % 0 mm
10:59 7.3 °C -3.3 °C 1029.3 hPa East 3.2 km/h 8 km/h 47 % 0 mm
11:01 7.3 °C -3 °C 1029 hPa East 6.4 km/h 8 km/h 48 % 0 mm
11:05 7.4 °C -2.9 °C 1029 hPa ESE 6.4 km/h 8 km/h 48 % 0 mm
11:07 7.6 °C -2.4 °C 1029 hPa Calm   8 km/h 49 % 0 mm
11:10 7.8 °C -2.3 °C 1029 hPa ENE 4.8 km/h 8 km/h 49 % 0 mm
11:15 8.3 °C -2.6 °C 1029 hPa NNW 4.8 km/h 8 km/h 46 % 0 mm
11:21 8.2 °C -2.7 °C 1029 hPa Calm   8 km/h 46 % 0 mm
11:22 8.2 °C -2.7 °C 1029 hPa ENE 3.2 km/h 8 km/h 46 % 0 mm
11:26 8.2 °C -3 °C 1028.7 hPa Calm   8 km/h 45 % 0 mm
11:28 8.2 °C -3 °C 1028.7 hPa Calm   8 km/h 45 % 0 mm
11:30 8.3 °C -2.9 °C 1028.7 hPa Calm   8 km/h 45 % 0 mm
11:33 8.4 °C -2.9 °C 1028.7 hPa ESE 1.6 km/h 8 km/h 45 % 0 mm
11:35 8.7 °C -2.9 °C 1028.7 hPa East 3.2 km/h 8 km/h 44 % 0 mm
11:40 8.8 °C -2.8 °C 1028.7 hPa Calm   8 km/h 44 % 0 mm
11:42 8.8 °C -2.8 °C 1028.7 hPa Calm   8 km/h 44 % 0 mm
11:46 8.9 °C -3 °C 1028.3 hPa Calm   8 km/h 43 % 0 mm
11:47 8.9 °C -2.7 °C 1028.3 hPa Calm   8 km/h 44 % 0 mm
11:52 9.1 °C -2.5 °C 1028.3 hPa Calm   8 km/h 44 % 0 mm
11:53 9.2 °C -2.7 °C 1028.3 hPa NW 4.8 km/h 8 km/h 43 % 0 mm
11:58 9.4 °C -2.9 °C 1028.3 hPa Calm   6.4 km/h 42 % 0 mm
11:59 9.4 °C -2.9 °C 1028.3 hPa North 1.6 km/h 6.4 km/h 42 % 0 mm
12:02 9.6 °C -3 °C 1028.3 hPa WNW 3.2 km/h 6.4 km/h 41 % 0 mm
12:07 9.6 °C -3 °C 1028 hPa NNW 4.8 km/h 8 km/h 41 % 0 mm
12:09 9.4 °C -3.2 °C 1028 hPa NNW 4.8 km/h 8 km/h 41 % 0 mm
12:14 9.4 °C -2.9 °C 1028 hPa NNW 3.2 km/h 11.3 km/h 42 % 0 mm
12:16 9.4 °C -3.2 °C 1028 hPa Calm   11.3 km/h 41 % 0 mm
12:21 9.8 °C -2.5 °C 1027.7 hPa East 1.6 km/h 11.3 km/h 42 % 0 mm
12:26 10.4 °C -3 °C 1027.7 hPa Calm   8 km/h 39 % 0 mm
12:28 10.5 °C -2.9 °C 1027.7 hPa NW 4.8 km/h 8 km/h 39 % 0 mm
12:33 10.2 °C -3.1 °C 1027.7 hPa NNW 3.2 km/h 8 km/h 39 % 0 mm
12:36 10.2 °C -3.1 °C 1027.7 hPa NNE 3.2 km/h 9.7 km/h 39 % 0 mm
12:39 10.3 °C -2.7 °C 1027.7 hPa NW 4.8 km/h 9.7 km/h 40 % 0 mm
12:44 10.4 °C -2.6 °C 1027.7 hPa Calm   9.7 km/h 40 % 0 mm
12:49 10.6 °C -2.8 °C 1027.3 hPa NW 1.6 km/h 9.7 km/h 39 % 0 mm
12:50 10.6 °C -2.8 °C 1027.3 hPa Calm   9.7 km/h 39 % 0 mm
12:55 10.7 °C -3 °C 1027.3 hPa NNE 3.2 km/h 11.3 km/h 38 % 0 mm
13:00 10.7 °C -3 °C 1027.3 hPa NNE 1.6 km/h 11.3 km/h 38 % 0 mm
13:01 10.7 °C -3 °C 1027.3 hPa NNW 4.8 km/h 11.3 km/h 38 % 0 mm
13:06 10.6 °C -3.1 °C 1027.3 hPa NNW 3.2 km/h 11.3 km/h 38 % 0 mm
13:09 10.6 °C -3.1 °C 1027 hPa WNW 1.6 km/h 11.3 km/h 38 % 0 mm
13:14 10.8 °C -2.6 °C 1027 hPa ENE 1.6 km/h 8 km/h 39 % 0 mm
13:19 11.2 °C -2.6 °C 1027 hPa North 6.4 km/h 6.4 km/h 38 % 0 mm
13:20 11.2 °C -2.6 °C 1027 hPa North 3.2 km/h 6.4 km/h 38 % 0 mm
13:21 11.3 °C -2.2 °C 1027 hPa NNE 6.4 km/h 11.3 km/h 39 % 0 mm
13:26 11.6 °C -2.2 °C 1027 hPa NW 3.2 km/h 11.3 km/h 38 % 0 mm
13:30 11.7 °C -2.9 °C 1027 hPa East 3.2 km/h 11.3 km/h 36 % 0 mm
13:31 11.6 °C -3 °C 1027 hPa Calm   11.3 km/h 36 % 0 mm
13:36 11.7 °C -2.5 °C 1026.6 hPa NNW 1.6 km/h 9.7 km/h 37 % 0 mm
13:37 11.7 °C -2.5 °C 1026.6 hPa North 6.4 km/h 9.7 km/h 37 % 0 mm
13:42 11.7 °C -2.9 °C 1027 hPa NW 1.6 km/h 11.3 km/h 36 % 0 mm
13:49 11.8 °C -2.4 °C 1027 hPa North 1.6 km/h 11.3 km/h 37 % 0 mm
13:54 11.8 °C -2.8 °C 1027 hPa North 4.8 km/h 12.9 km/h 36 % 0 mm
13:56 11.9 °C -2.3 °C 1027 hPa NW 4.8 km/h 12.9 km/h 37 % 0 mm
14:01 11.7 °C -2.9 °C 1027 hPa NNW 3.2 km/h 12.9 km/h 36 % 0 mm
14:02 11.7 °C -2.9 °C 1027 hPa NNE 1.6 km/h 12.9 km/h 36 % 0 mm
14:07 11.8 °C -2.4 °C 1026.6 hPa SSW 1.6 km/h 9.7 km/h 37 % 0 mm
14:12 12.3 °C -2 °C 1026.6 hPa NNW 3.2 km/h 9.7 km/h 37 % 0 mm
14:13 12.4 °C -1.9 °C 1026.6 hPa NNW 3.2 km/h 9.7 km/h 37 % 0 mm
14:18 12.7 °C -2.4 °C 1026.6 hPa NNE 6.4 km/h 6.4 km/h 35 % 0 mm
14:19 12.7 °C -2.4 °C 1026.6 hPa NW 3.2 km/h 6.4 km/h 35 % 0 mm
14:24 12.5 °C -2.9 °C 1026.6 hPa Calm   6.4 km/h 34 % 0 mm
14:27 12.4 °C -3 °C 1026.6 hPa Calm   9.7 km/h 34 % 0 mm
14:32 12.6 °C -2.5 °C 1026.6 hPa SW 1.6 km/h 9.7 km/h 35 % 0 mm
14:34 12.6 °C -2.5 °C 1026.6 hPa Calm   9.7 km/h 35 % 0 mm
14:37 12.9 °C -2.6 °C 1026.6 hPa NNW 1.6 km/h 9.7 km/h 34 % 0 mm
14:41 13.1 °C -2 °C 1026.3 hPa SSW 1.6 km/h 4.8 km/h 35 % 0 mm
14:45 13.2 °C -1.9 °C 1026.3 hPa SSW 1.6 km/h 8 km/h 35 % 0 mm
14:49 13.3 °C -2.2 °C 1026.3 hPa SSW 1.6 km/h 8 km/h 34 % 0 mm
14:54 13.4 °C -2.6 °C 1026.3 hPa East 3.2 km/h 8 km/h 33 % 0 mm
14:59 13.6 °C -2 °C 1026.3 hPa SW 1.6 km/h 8 km/h 34 % 0 mm
15:04 13.7 °C -2.3 °C 1026.3 hPa Calm   8 km/h 33 % 0 mm
15:10 13.5 °C -2.5 °C 1026.3 hPa Calm   3.2 km/h 33 % 0 mm
15:15 13.3 °C -2.6 °C 1026.3 hPa NNW 3.2 km/h 3.2 km/h 33 % 0 mm
15:23 13.2 °C -2.7 °C 1026.3 hPa Calm   3.2 km/h 33 % 0 mm
15:26 13.3 °C -3.1 °C 1026.3 hPa NW 4.8 km/h 8 km/h 32 % 0 mm
15:33 12.6 °C -2.9 °C 1026.3 hPa NNW 4.8 km/h 11.3 km/h 34 % 0 mm
15:36 12.5 °C -2.9 °C 1026.3 hPa NW 1.6 km/h 11.3 km/h 34 % 0 mm
15:43 12.6 °C -3.3 °C 1026.3 hPa North 1.6 km/h 11.3 km/h 33 % 0 mm
15:47 12.6 °C -2.9 °C 1026.3 hPa Calm   11.3 km/h 34 % 0 mm
15:48 12.6 °C -2.9 °C 1026.3 hPa West 1.6 km/h 11.3 km/h 34 % 0 mm
15:50 12.6 °C -2.9 °C 1026.3 hPa NW 1.6 km/h 6.4 km/h 34 % 0 mm
15:51 12.6 °C -2.9 °C 1026.3 hPa NW 1.6 km/h 6.4 km/h 34 % 0 mm
15:53 12.5 °C -2.9 °C 1026.3 hPa NW 3.2 km/h 6.4 km/h 34 % 0 mm
15:54 12.4 °C -3.4 °C 1026 hPa NNW 1.6 km/h 6.4 km/h 33 % 0 mm
15:59 12.2 °C -3.2 °C 1026 hPa NNE 1.6 km/h 6.4 km/h 34 % 0 mm
16:01 12.2 °C -2.8 °C 1026.3 hPa NNW 4.8 km/h 8 km/h 35 % 0 mm
16:06 12.1 °C -2.9 °C 1026.3 hPa Calm   8 km/h 35 % 0 mm
16:09 12.1 °C -3.3 °C 1026.3 hPa NW 3.2 km/h 8 km/h 34 % 0 mm
16:12 12 °C -3 °C 1026.3 hPa NW 1.6 km/h 8 km/h 35 % 0 mm
16:14 12 °C -3 °C 1026.3 hPa NW 1.6 km/h 8 km/h 35 % 0 mm
16:19 11.9 °C -2.7 °C 1026.3 hPa NNE 1.6 km/h 6.4 km/h 36 % 0 mm
16:21 11.9 °C -2.7 °C 1026.3 hPa NNW 3.2 km/h 6.4 km/h 36 % 0 mm
16:24 11.8 °C -2.8 °C 1026.3 hPa WNW 4.8 km/h 6.4 km/h 36 % 0 mm
16:29 11.7 °C -2.9 °C 1026.3 hPa NNW 1.6 km/h 4.8 km/h 36 % 0 mm
16:31 11.7 °C -2.9 °C 1026.3 hPa NNW 3.2 km/h 4.8 km/h 36 % 0 mm
16:36 11.6 °C -2.6 °C 1026.3 hPa NNW 3.2 km/h 6.4 km/h 37 % 0 mm
16:41 11.4 °C -2.8 °C 1026.3 hPa Calm   6.4 km/h 37 % 0 mm
16:45 11.4 °C -2.8 °C 1026.6 hPa NW 1.6 km/h 6.4 km/h 37 % 0 mm
16:50 11.3 °C -2.5 °C 1026.6 hPa NW 1.6 km/h 4.8 km/h 38 % 0 mm
16:55 11.2 °C -2.6 °C 1026.6 hPa Calm   3.2 km/h 38 % 0 mm
16:57 11.2 °C -2.3 °C 1026.6 hPa Calm   3.2 km/h 39 % 0 mm
17:02 11.1 °C -2.3 °C 1026.6 hPa Calm   3.2 km/h 39 % 0 mm
17:07 10.9 °C -2.2 °C 1026.6 hPa NNW 1.6 km/h 3.2 km/h 40 % 0 mm
17:12 10.7 °C -2.4 °C 1026.6 hPa NNW 3.2 km/h 3.2 km/h 40 % 0 mm
17:16 10.6 °C -2.1 °C 1026.6 hPa North 1.6 km/h 4.8 km/h 41 % 0 mm
17:21 10.4 °C -2.3 °C 1026.3 hPa Calm   4.8 km/h 41 % 0 mm
17:24 10.3 °C -2.4 °C 1026.6 hPa Calm   4.8 km/h 41 % 0 mm
17:29 10.1 °C -2.2 °C 1026.3 hPa NNW 1.6 km/h 4.8 km/h 42 % 0 mm
17:34 9.9 °C -2.1 °C 1026.3 hPa Calm   3.2 km/h 43 % 0 mm
17:39 9.7 °C -2 °C 1026.3 hPa Calm   3.2 km/h 44 % 0 mm
17:40 9.7 °C -2 °C 1026.3 hPa Calm   3.2 km/h 44 % 0 mm
17:45 9.5 °C -1.8 °C 1026.3 hPa Calm   3.2 km/h 45 % 0 mm
17:47 9.4 °C -1.9 °C 1026.3 hPa Calm   1.6 km/h 45 % 0 mm
17:51 9.2 °C -1.8 °C 1026.3 hPa Calm   1.6 km/h 46 % 0 mm
17:53 9.1 °C -1.9 °C 1026.3 hPa Calm   1.6 km/h 46 % 0 mm
17:54 9 °C -1.7 °C 1026.3 hPa Calm   1.6 km/h 47 % 0 mm
17:59 8.7 °C -2 °C 1026.3 hPa Calm   1.6 km/h 47 % 0 mm
18:04 8.3 °C -1.8 °C 1026.6 hPa Calm   1.6 km/h 49 % 0 mm
18:07 8.2 °C -1.9 °C 1026.6 hPa Calm   1.6 km/h 49 % 0 mm
18:12 7.8 °C -2 °C 1026.6 hPa Calm   1.6 km/h 50 % 0 mm
18:17 7.6 °C -1.6 °C 1026.6 hPa Calm   1.6 km/h 52 % 0 mm
18:22 7.4 °C -1.6 °C 1026.6 hPa Calm   1.6 km/h 53 % 0 mm
18:23 7.4 °C -1.3 °C 1026.6 hPa Calm   1.6 km/h 54 % 0 mm
18:24 7.3 °C -1.4 °C 1026.6 hPa Calm   1.6 km/h 54 % 0 mm
18:29 7.2 °C -1.5 °C 1026.6 hPa Calm   1.6 km/h 54 % 0 mm
18:34 6.9 °C -1.5 °C 1026.6 hPa Calm   1.6 km/h 55 % 0 mm
18:37 6.8 °C -1.4 °C 1026.6 hPa Calm   1.6 km/h 56 % 0 mm
18:42 6.7 °C -1.5 °C 1026.6 hPa Calm   1.6 km/h 56 % 0 mm
18:46 6.5 °C -1.6 °C 1026.6 hPa Calm     56 % 0 mm
18:52 6.2 °C -1.7 °C 1027 hPa Calm     57 % 0 mm
18:53 6.2 °C -1.5 °C 1027 hPa Calm     58 % 0 mm
18:58 6.1 °C -1.5 °C 1027 hPa Calm     58 % 0 mm
19:00 6.1 °C -1.5 °C 1027 hPa Calm     58 % 0 mm
19:05 6.2 °C -1.7 °C 1027 hPa Calm   1.6 km/h 57 % 0 mm
19:10 6.4 °C -1.7 °C 1027 hPa Calm   1.6 km/h 56 % 0 mm
19:15 6.6 °C -1.8 °C 1027.3 hPa Calm   1.6 km/h 55 % 0 mm
19:17 6.6 °C -1.8 °C 1027.3 hPa Calm   1.6 km/h 55 % 0 mm
19:21 6.6 °C -1.8 °C 1027.3 hPa Calm   1.6 km/h 55 % 0 mm
19:23 6.6 °C -2 °C 1027.3 hPa Calm   1.6 km/h 54 % 0 mm
19:29 6.6 °C -2 °C 1027.3 hPa Calm   1.6 km/h 54 % 0 mm
19:30 6.6 °C -2 °C 1027.3 hPa Calm   1.6 km/h 54 % 0 mm
19:35 6.6 °C -2 °C 1027.3 hPa Calm   1.6 km/h 54 % 0 mm
19:37 6.6 °C -2 °C 1027.3 hPa Calm   1.6 km/h 54 % 0 mm
19:42 6.6 °C -2 °C 1027.7 hPa Calm   1.6 km/h 54 % 0 mm
19:46 6.5 °C -2.1 °C 1027.7 hPa Calm   1.6 km/h 54 % 0 mm
19:49 6.5 °C -2.1 °C 1027.3 hPa Calm   1.6 km/h 54 % 0 mm
19:52 6.5 °C -2.1 °C 1027.3 hPa Calm   1.6 km/h 54 % 0 mm
19:57 6.4 °C -2.2 °C 1027.3 hPa Calm   1.6 km/h 54 % 0 mm
20:02 6.4 °C -2 °C 1027.3 hPa Calm     55 % 0 mm
20:06 6.4 °C -2 °C 1027.3 hPa Calm     55 % 0 mm
20:09 6.4 °C -1.7 °C 1027.3 hPa Calm     56 % 0 mm
20:12 6.3 °C -1.8 °C 1027.3 hPa Calm   1.6 km/h 56 % 0 mm
20:14 6.3 °C -1.8 °C 1027.3 hPa Calm   1.6 km/h 56 % 0 mm
20:19 6.3 °C -1.8 °C 1027.3 hPa Calm   1.6 km/h 56 % 0 mm
20:24 6.3 °C -2.1 °C 1027.3 hPa Calm   1.6 km/h 55 % 0 mm
20:29 6.3 °C -2.1 °C 1027.3 hPa Calm   1.6 km/h 55 % 0 mm
20:30 6.4 °C -2 °C 1027.3 hPa Calm   1.6 km/h 55 % 0 mm
20:35 6.4 °C -2.2 °C 1027.3 hPa Calm   1.6 km/h 54 % 0 mm
20:40 6.4 °C -2.5 °C 1027 hPa Calm   1.6 km/h 53 % 0 mm
20:43 6.5 °C -2.4 °C 1027 hPa Calm   1.6 km/h 53 % 0 mm
20:48 6.6 °C -2.6 °C 1027.3 hPa Calm   1.6 km/h 52 % 0 mm
20:51 6.6 °C -2.6 °C 1027 hPa Calm   1.6 km/h 52 % 0 mm
20:56 6.6 °C -2.6 °C 1027.3 hPa Calm   1.6 km/h 52 % 0 mm
20:58 6.6 °C -2.6 °C 1027.3 hPa Calm   1.6 km/h 52 % 0 mm
21:03 6.7 °C -2.7 °C 1027.3 hPa Calm   1.6 km/h 51 % 0 mm
21:08 6.6 °C -2.8 °C 1027.3 hPa Calm   1.6 km/h 51 % 0 mm
21:09 6.6 °C -2.8 °C 1027.3 hPa Calm   1.6 km/h 51 % 0 mm
21:11 6.6 °C -2.8 °C 1027.3 hPa Calm   1.6 km/h 51 % 0 mm
21:16 6.6 °C -2.8 °C 1027.3 hPa Calm   1.6 km/h 51 % 0 mm
21:17 6.6 °C -2.8 °C 1027.3 hPa Calm   1.6 km/h 51 % 0 mm
21:22 6.6 °C -2.8 °C 1027.7 hPa Calm   1.6 km/h 51 % 0 mm
21:26 6.5 °C -2.9 °C 1027.7 hPa Calm   1.6 km/h 51 % 0 mm
21:29 6.5 °C -2.9 °C 1027.7 hPa Calm   1.6 km/h 51 % 0 mm
21:34 6.4 °C -3 °C 1027.7 hPa Calm   1.6 km/h 51 % 0 mm
21:39 6.4 °C -2.7 °C 1027.7 hPa Calm   1.6 km/h 52 % 0 mm
21:41 6.3 °C -3.1 °C 1027.7 hPa Calm   1.6 km/h 51 % 0 mm
21:46 6.3 °C -2.8 °C 1027.7 hPa Calm     52 % 0 mm
21:49 6.3 °C -2.8 °C 1028 hPa Calm     52 % 0 mm
21:55 6.2 °C -2.9 °C 1028 hPa Calm     52 % 0 mm
21:58 6.2 °C -2.7 °C 1028 hPa Calm     53 % 0 mm
22:03 6.1 °C -2.8 °C 1028 hPa Calm     53 % 0 mm
22:06 6.1 °C -2.5 °C 1028 hPa Calm     54 % 0 mm
22:09 6.1 °C -2.5 °C 1028 hPa Calm     54 % 0 mm
22:14 6 °C -2.6 °C 1028 hPa Calm     54 % 0 mm
22:16 5.9 °C -2.7 °C 1028 hPa Calm   1.6 km/h 54 % 0 mm
22:20 5.8 °C -2.5 °C 1028.3 hPa Calm   1.6 km/h 55 % 0 mm
22:25 5.8 °C -2.5 °C 1028.3 hPa Calm   1.6 km/h 55 % 0 mm
22:30 5.8 °C -2.5 °C 1028.3 hPa Calm     55 % 0 mm
22:33 5.7 °C -2.6 °C 1028.3 hPa Calm     55 % 0 mm
22:38 5.7 °C -2.4 °C 1028 hPa Calm     56 % 0 mm
22:40 5.7 °C -2.4 °C 1028 hPa Calm     56 % 0 mm
22:45 5.7 °C -2.2 °C 1028 hPa Calm     57 % 0 mm
22:47 5.7 °C -2.2 °C 1028 hPa Calm     57 % 0 mm
22:53 5.7 °C -2.2 °C 1028 hPa Calm     57 % 0 mm
22:54 5.6 °C -2.3 °C 1028 hPa Calm     57 % 0 mm
22:59 5.6 °C -2.3 °C 1028 hPa Calm     57 % 0 mm
23:04 5.4 °C -2.4 °C 1028 hPa Calm     57 % 0 mm
23:05 5.4 °C -2.4 °C 1028 hPa Calm     57 % 0 mm
23:10 5.3 °C -2.5 °C 1028 hPa Calm     57 % 0 mm
23:15 5.2 °C -2.6 °C 1028 hPa Calm     57 % 0 mm
23:20 5.2 °C -2.4 °C 1028 hPa Calm   1.6 km/h 58 % 0 mm
23:21 5.2 °C -2.4 °C 1028 hPa Calm   1.6 km/h 58 % 0 mm
23:26 5.3 °C -2.3 °C 1028 hPa Calm   1.6 km/h 58 % 0 mm
23:31 5.3 °C -2.3 °C 1028 hPa Calm   1.6 km/h 58 % 0 mm
23:34 5.3 °C -2.3 °C 1028 hPa Calm   1.6 km/h 58 % 0 mm
23:39 5.3 °C -2.3 °C 1028.3 hPa Calm   1.6 km/h 58 % 0 mm
23:40 5.3 °C -2.3 °C 1028.3 hPa Calm     58 % 0 mm
23:45 5.3 °C -2.3 °C 1028.3 hPa Calm     58 % 0 mm
23:48 5.3 °C -2.3 °C 1028.3 hPa Calm     58 % 0 mm
23:50 5.3 °C -2.3 °C 1028 hPa Calm     58 % 0 mm
23:55 5.3 °C -2.3 °C 1028.3 hPa Calm     58 % 0 mm
Spring, Texas: Villages of Bridgestone
Compliments of Weather Underground - 3.5 mb

Script developed by  Jim McMurry - jmcmurry@mwt.net Adapted for the template by  Wim van der Kuil - Leuven-Template.eu

You find our weather info also at:

UK Metoffice

WeatherCloud

Weather Underground

Mid-South Weather Network

AWEKAS

Citizen Weather Observer Program (CWOP)

HAMweather, WeatherForYou, PWS Weather

Equipment we use:

Weather-station
Davis Vantage Vue

Weather-program
Meteohub

Weather-server
Debian 7.9 x86 (Guest)

Provider
DreamHost

Davis Vantage Vue

Meteohub

Debian 7.9 x86 (Guest)

DreamHost